Regional Weather Roundup
Issued by NWS Upton, NY

Current Version | Previous Version | Text Only | Print | Product List | Glossary On
Versions: 1 2 3 4 5 6 7 8 9 10 11 12 13 14 15 16 17 18 19 20 21 22 23 24 25 26 27 28 29 30 31 32 33 34 35 36 37 38 39 40 41 42 43 44 45 46 47 48 49 50
348 ASUS41 KOKX 220409 RWROKX REGIONAL WEATHER ROUNDUP NATIONAL WEATHER SERVICE NEW YORK NY 1100 PM EST TUE NOV 21 2017 NOTE: "FAIR" INDICATES FEW OR NO CLOUDS BELOW 12,000 FEET WITH NO SIGNIFICANT WEATHER AND/OR OBSTRUCTIONS TO VISIBILITY. NYZ071-072-176-178-NJZ106-104-220500- NEW YORK CITY METRO AREA CITY SKY/WX TMP DP RH WIND PRES REMARKS Central Park CLOUDY 54 40 59 SW7G18 30.06S Bronx Bot Gard N/A 50 39 66 S2 30.04F Bronx Lehman C N/A 54 32 43 SW9 N/A LaGuardia APRT CLOUDY 53 40 61 S9 30.04S Queens College N/A 52 32 46 SW7 N/A Kennedy INTL CLOUDY 50 43 77 SW8 30.05F Breezy Point N/A 50 N/A N/A SW6 N/A Brooklyn Coll N/A 52 32 46 S3 N/A Staten Island N/A 50 32 50 S3 N/A Newark/Liberty CLOUDY 50 40 68 S5 30.04F Teterboro CLOUDY 47 39 74 SW3 30.03S $$ NYZ177-179-078>081-220500- LONG ISLAND NEW YORK CITY SKY/WX TMP DP RH WIND PRES REMARKS Jones Beach N/A 52 N/A N/A W3 N/A Wantagh N/A 52 32 46 W5 N/A Matinecock PT N/A 54 N/A N/A SW12 N/A Farmingdale CLOUDY 51 44 77 W3 30.05F MacArthur/ISP CLOUDY 54 49 83 SW8 30.04F Shirley CLOUDY 55 50 83 SW6 30.06F Mt Sinai Harb N/A N/A N/A N/A S6 N/A Westhampton CLOUDY 53 48 83 SW5 30.07F East Hampton MOCLDY 55 49 82 SW5 30.06S Southold N/A 52 32 46 S6 N/A Montauk N/A 57 51 80 VRB6 30.07 $$ NYZ052-065-067-220500- HUDSON VALLEY CITY SKY/WX TMP DP RH WIND PRES REMARKS White Plains PTCLDY 44 37 76 CALM 30.02F Larchmont Harb N/A 52 N/A N/A S10 N/A Croton On Huds N/A 48 N/A N/A S2 N/A Somers N/A 46 32 57 S5 N/A Brewster N/A 39 32 75 S1 N/A Newburgh CLEAR 37 32 81 CALM 30.01F Montgomery CLEAR 30 28 92 CALM 30.00S Suffern N/A 43 32 65 S2 N/A Poughkeepsie CLEAR 33 27 78 CALM 30.01S Albany PTCLDY 47 28 47 S13 29.95S $$ NJZ001-105-106-008-010-013-015-019>022-104-220500- NEW JERSEY CITY SKY/WX TMP DP RH WIND PRES REMARKS Newark/Liberty CLOUDY 50 40 68 S5 30.04F Teterboro CLOUDY 47 39 74 SW3 30.03S Caldwell CLOUDY 37 32 82 CALM 30.04F Somerville CLOUDY 33 30 88 CALM 30.02F Linden FAIR 46 36 69 CALM 30.04F Perth Amboy N/A 48 N/A N/A E1 N/A Sussex CLEAR 36 29 75 CALM 30.01F Andover N/A 33 31 92 CALM 30.01 Trenton CLOUDY 48 39 71 CALM 30.02F Millville CLOUDY 55 48 77 VRB5 30.05F Atlantic City CLOUDY 59 51 75 S13G25 30.05S Wrightstown CLOUDY 51 43 75 CALM 30.01F Toms River CLOUDY 46 42 86 SW3 30.05S Belmar CLOUDY 52 43 71 SW5 30.05S $$ PAZ047>061-062-071-220500- EASTERN PENNSYLVANIA CITY SKY/WX TMP DP RH WIND PRES REMARKS Philadelphia CLOUDY 53 41 63 SW9 30.03F Allentown CLOUDY 36 30 79 CALM 30.01F Scranton CLEAR 47 34 60 CALM 29.97F $$ CTZ002-004>006-009-010-012-RIZ004-006-007-MAZ004-011-015-220500- SOUTHERN NEW ENGLAND IN CT CITY SKY/WX TMP DP RH WIND PRES REMARKS Bradley INTL CLEAR 48 39 71 SW9 30.03R Hartford CLEAR 50 40 68 S3 30.03F Danbury CLOUDY 41 36 82 CALM 30.04S Wtrbury/Oxford CLOUDY 44 38 79 CALM 30.04S Norwalk Harbor N/A 52 N/A N/A SW16 N/A Bridgeport CLOUDY 53 45 74 SW8 30.05R Meriden CLOUDY 38 36 92 CALM 30.04F New Haven CLOUDY 52 45 77 SW3 30.05S Chester FAIR 50 45 81 S3 30.05S Groton CLOUDY 54 47 77 SW8 30.05F Wilimantic CLEAR 49 40 71 S5 30.04F IN RI CITY SKY/WX TMP DP RH WIND PRES REMARKS Providence CLEAR 53 45 74 SW10 30.06R Block Island CLOUDY 56 51 84 SW13 30.07F Westerly CLEAR 55 50 83 SW7 30.06F IN MA CITY SKY/WX TMP DP RH WIND PRES REMARKS Boston PTCLDY 50 40 68 SW12 30.02R Worcester CLEAR 46 34 62 SW16G24 29.99S Westfield CLEAR 42 37 82 S7 30.01S Provincetown CLEAR 53 47 79 SW15 30.06R Nantucket CLOUDY 56 51 84 SW18 30.09S $$ ANZ330-335-338-340-345-350-353-355-220500- COASTAL MARINE OBSERVATIONS STATION/POSITION TIME SKY/WX TEMP WIND PRES VSBY WAVE AIR SEA DIR/SP/G HT/PER (UTC) (F) (DEG/KT/KT) (MB) (MI) (FT/S) NY HARB ENTRANCE 0250 57 58 220/ 14/ 17 1016.9 5/ 7 20 S FIRE ISLAND 0250 60 56 210/ 17/ 23 1017.6 7/ 7 GREAT SOUTH BAY 0330 51 46 240/ 10/ 12 N/A HUDSON CANYON 0250 62 59 210/ 19/ 23 1018.7 7/ 7 KINGS POINT 0342 52 51 230/ 8/ 10 1018.2 EXECUTION ROCKS 0330 53 180/ 12/ 14 N/A WESTERN LI SOUND 0249 54 210/ 14/ 17 N/A 1 CENTRAL LI SOUND 0315 56 220/ 14/ 17 N/A 2 ROBBINS REEF 0348 51 190/ 6/ 9 1017.8 $$ >>>>>>>>>>>>>>>>>>>>>>>>>>>> KEY <<<<<<<<<<<<<<<<<<<<<<<<<<< > < > SKY/WX - Sky Condition/Present Weather < > TMP - Temperature in Fahrenheit < > DP - Dew Point in Fahrenheit < > RH - Relative Humidity in Percent < > WIND - Direction (from) and Speed in MPH < > PRES - Mean Sea Level Pressure (inches of Hg) < > WCI - Wind Chill Index < > VSB - VISIBILITY IN MILES < > HX - HEAT INDEX < > TC - TEMPERATURE IN CELSIUS < > VRB - VARIABLE WIND DIRECTION < > < >>>>>>>>>>>>>>>>>>>>>>>>>>>> KEY <<<<<<<<<<<<<<<<<<<<<<<<<<<

USA.gov is the U.S. government's official web portal to all federal, state and local government web resources and services.